WB6TTB Weather Reports


Display with metric or nautical units.
time (UTC)temp
F
wind
direction
speed
MPH
gust
MPH
rain 1hr
in
rain 24hr
in
rain mn
in
humidity
%
barometer
mb
20260508012404 63 0 0.0 0.0 0.00 0.00 0.00 80 1015.8
20260507230004 63 0 0.0 0.0 0.00 0.00 0.00 82 1016.2
20260507201203 61 0 0.0 0.0 0.00 0.00 0.00 84 1017.8
20260507190004 60 0 0.0 0.0 0.00 0.00 0.00 84 1018.3
20260507183004 57 0 0.0 0.0 0.00 0.00 0.00 89 1018.6
20260507171803 54 0 0.0 0.0 0.00 0.00 0.00 93 1018.7
20260507153003 52 0 0.0 0.0 0.00 0.00 0.00 96 1018.6
20260507151803 52 0 0.0 0.0 0.00 0.00 0.00 97 1018.6
20260507143003 52 0 0.0 0.0 0.00 0.00 0.00 97 1018.3
20260507112404 51 0 0.0 0.0 0.00 0.00 0.00 96 1017.7
20260507110603 51 0 0.0 0.0 0.00 0.00 0.00 96 1017.7
20260507100003 51 0 0.0 0.0 0.00 0.00 0.00 96 1017.8
20260507094204 51 0 0.0 0.0 0.00 0.00 0.00 96 1017.8
20260507092404 52 0 0.0 0.0 0.00 0.00 0.00 96 1017.9
20260507091204 52 0 0.0 0.0 0.00 0.00 0.00 96 1018.0
20260507090005 52 0 0.0 0.0 0.00 0.00 0.00 96 1018.0
20260507084203 52 0 0.0 0.0 0.00 0.00 0.00 96 1018.1
20260507073603 52 0 0.0 0.0 0.00 0.00 0.00 96 1018.3
20260507061203 53 0 0.0 0.0 0.00 0.00 0.00 94 1018.1
20260507053603 54 0 0.0 0.0 0.00 0.00 0.00 93 1018.0
20260507043004 56 0 0.0 0.0 0.00 0.00 0.00 90 1017.9
20260507030603 59 0 0.0 0.0 0.00 0.00 0.00 87 1017.4
20260507014203 63 0 0.0 0.0 0.00 0.00 0.00 80 1017.2